�N����,����,�~����,�C��,���x,�C��,����,���ϕ���,�ő�u�ԕ���,�ő厞����,���˗�,�I�_���x,�n�����x,�ő啗���N��,DTYPE
"18/11/08","00:10",0.0,13.5,90.6,1017.3,299.0,1.5,2.6,336.6,0.00,12.0,15.9,"00:01:52",1
"18/11/08","00:20",0.0,13.3,90.7,1017.3,297.2,1.5,2.5,307.4,0.00,11.9,15.8,"00:12:48",1
"18/11/08","00:30",0.0,13.0,90.7,1017.3,321.5,2.2,3.6,332.2,0.00,11.6,15.7,"00:26:56",1
"18/11/08","00:40",0.0,13.1,90.9,1017.3,314.8,1.7,3.2,320.1,0.00,11.7,15.7,"00:31:20",1
"18/11/08","00:50",0.0,13.4,90.9,1017.3,312.6,2.0,3.6,309.2,0.00,12.0,15.7,"00:46:02",1
"18/11/08","01:00",0.0,13.5,90.7,1017.3,308.8,2.2,3.4,316.4,0.00,12.1,15.7,"00:50:16",1
"18/11/08","01:10",0.0,13.3,90.4,1017.5,293.9,1.5,2.2,317.7,0.00,11.8,15.7,"01:08:00",1
"18/11/08","01:20",0.0,13.2,90.6,1017.3,310.1,1.7,2.9,329.0,0.00,11.7,15.5,"01:12:18",1
"18/11/08","01:30",0.0,13.2,90.5,1017.1,319.3,2.1,3.7,320.2,0.00,11.7,15.7,"01:24:48",1
"18/11/08","01:40",0.0,13.0,91.1,1017.1,303.6,1.3,2.4,300.6,0.00,11.6,15.7,"01:39:50",1
"18/11/08","01:50",0.0,13.1,91.3,1017.3,311.6,2.0,3.4,314.9,0.00,11.8,15.5,"01:47:54",1
"18/11/08","02:00",0.0,13.1,91.1,1017.3,324.8,2.7,4.8,326.9,0.00,11.7,15.4,"01:50:16",1
"18/11/08","02:10",0.0,13.1,91.3,1017.3,323.7,2.2,3.9,329.2,0.00,11.8,15.3,"02:08:40",1
"18/11/08","02:20",0.0,13.1,91.3,1017.5,324.3,2.8,4.2,337.1,0.00,11.8,15.3,"02:14:18",1
"18/11/08","02:30",0.0,12.9,91.4,1017.8,325.1,2.3,4.3,337.4,0.00,11.6,15.5,"02:23:20",1
"18/11/08","02:40",0.0,12.9,91.6,1017.3,328.4,2.6,4.2,335.9,0.00,11.6,15.4,"02:31:56",1
"18/11/08","02:50",0.0,12.8,91.7,1017.3,325.9,2.6,3.6,311.0,0.00,11.5,15.5,"02:44:38",1
"18/11/08","03:00",0.0,12.8,91.8,1017.3,323.9,2.6,4.0,322.6,0.00,11.5,15.4,"02:52:48",1
"18/11/08","03:10",0.0,12.7,92.0,1017.8,319.2,2.0,3.5,310.5,0.00,11.5,15.2,"03:00:40",1
"18/11/08","03:20",0.0,12.6,92.0,1017.3,321.7,1.8,3.3,333.6,0.00,11.4,15.3,"03:16:10",1
"18/11/08","03:30",0.0,12.3,92.2,1017.5,328.2,1.6,2.7,337.4,0.00,11.1,15.3,"03:20:52",1
"18/11/08","03:40",0.0,12.1,92.3,1017.5,323.1,1.6,2.5,334.1,0.00,10.9,15.0,"03:30:40",1
"18/11/08","03:50",0.0,12.0,92.8,1017.5,308.5,1.7,2.2,320.9,0.00,10.9,15.2,"03:48:48",1
"18/11/08","04:00",0.0,11.7,93.2,1017.3,309.9,1.7,2.4,323.8,0.00,10.7,15.1,"03:56:32",1
"18/11/08","04:10",0.0,11.4,93.5,1017.3,305.1,1.3,1.8,311.1,0.00,10.4,15.2,"04:08:16",1
"18/11/08","04:20",0.0,11.4,93.9,1017.5,324.0,1.3,2.0,323.0,0.00,10.5,15.0,"04:10:20",1
"18/11/08","04:30",0.0,11.1,94.6,1017.5,304.3,1.1,1.4,322.1,0.00,10.3,15.0,"04:20:54",1
"18/11/08","04:40",0.0,11.1,94.6,1017.5,290.1,1.2,1.4,310.1,0.00,10.3,15.0,"04:30:08",1
"18/11/08","04:50",0.0,11.1,95.3,1017.5,310.4,0.8,1.6,315.5,0.00,10.4,14.9,"04:41:38",1
"18/11/08","05:00",0.0,11.1,95.3,1017.5,304.9,1.5,1.9,315.6,0.00,10.4,15.0,"04:57:02",1
"18/11/08","05:10",0.0,11.1,95.3,1017.5,297.8,1.3,1.9,308.3,0.00,10.4,14.8,"05:08:58",1
"18/11/08","05:20",0.0,10.8,95.0,1017.3,312.0,1.3,2.0,317.0,0.00,10.1,14.9,"05:18:36",1
"18/11/08","05:30",0.0,10.8,95.4,1017.5,316.1,1.7,2.1,327.0,0.00,10.1,14.7,"05:20:24",1
"18/11/08","05:40",0.0,10.5,95.3,1017.5,315.8,1.0,1.9,331.2,0.00,9.8,14.4,"05:30:08",1
"18/11/08","05:50",0.0,10.5,95.4,1017.5,328.3,1.1,1.9,325.1,0.00,9.8,14.7,"05:49:54",1
"18/11/08","06:00",0.0,10.1,96.1,1017.3,326.3,1.8,2.2,321.4,0.00,9.5,14.7,"05:50:08",1
"18/11/08","06:10",0.0,10.2,96.9,1017.5,311.2,1.5,1.8,319.4,0.00,9.8,14.6,"06:04:32",1
"18/11/08","06:20",0.0,10.3,97.0,1017.3,295.2,1.3,1.6,308.6,0.00,9.9,14.7,"06:11:52",1
"18/11/08","06:30",0.0,10.4,96.8,1017.5,292.8,1.3,1.6,320.2,0.00,10.0,14.4,"06:20:26",1
"18/11/08","06:40",0.0,10.3,96.6,1017.5,303.8,1.3,1.9,333.0,0.00,9.8,14.7,"06:38:32",1
"18/11/08","06:50",0.0,10.4,97.0,1017.3,310.3,1.3,2.9,322.1,0.00,10.0,14.5,"06:44:50",1
"18/11/08","07:00",0.0,10.6,97.0,1017.8,291.2,1.3,1.8,300.0,0.00,10.2,14.5,"06:58:12",1
"18/11/08","07:10",0.0,10.9,96.9,1017.8,304.6,1.5,2.0,318.2,0.00,10.5,14.3,"07:07:50",1
"18/11/08","07:20",0.0,11.3,96.6,1018.0,323.7,0.8,1.7,337.4,0.01,10.8,14.4,"07:10:40",1
"18/11/08","07:30",0.0,11.8,96.5,1017.8,113.8,0.2,0.8,98.8,0.03,11.3,14.5,"07:26:56",1
"18/11/08","07:40",0.0,12.5,96.0,1017.8,267.0,0.6,1.3,313.3,0.04,11.9,14.7,"07:39:20",1
"18/11/08","07:50",0.0,12.8,94.7,1018.0,292.3,1.0,1.7,314.2,0.05,12.0,14.7,"07:44:48",1
"18/11/08","08:00",0.0,13.4,93.3,1018.2,303.4,0.5,0.8,297.4,0.06,12.4,14.7,"07:52:00",1
"18/11/08","08:10",0.0,14.3,90.5,1018.2,343.2,0.7,1.7,334.0,0.09,12.8,14.8,"08:06:56",1
"18/11/08","08:20",0.0,15.0,87.3,1018.5,313.3,0.6,1.4,314.4,0.12,12.9,15.2,"08:12:16",1
"18/11/08","08:30",0.0,15.6,85.7,1019.0,322.6,0.3,1.0,276.4,0.13,13.3,15.1,"08:24:00",1
"18/11/08","08:40",0.0,15.9,83.7,1018.7,222.2,0.5,1.3,111.9,0.15,13.2,15.2,"08:38:16",1
"18/11/08","08:50",0.0,16.1,83.1,1018.7,98.2,0.8,1.8,103.5,0.16,13.3,15.2,"08:44:32",1
"18/11/08","09:00",0.0,16.5,82.5,1018.7,125.3,0.7,1.6,117.2,0.17,13.6,15.3,"08:50:56",1
"18/11/08","09:10",0.0,16.5,81.7,1018.7,215.1,1.0,1.9,205.5,0.20,13.4,15.5,"09:04:56",1
"18/11/08","09:20",0.0,16.7,80.2,1018.2,230.0,0.6,1.6,210.0,0.22,13.3,15.8,"09:10:02",1
"18/11/08","09:30",0.0,17.3,79.1,1018.2,242.1,0.5,1.3,232.7,0.24,13.7,15.9,"09:24:40",1
"18/11/08","09:40",0.0,17.7,78.3,1017.8,221.6,1.1,2.7,229.7,0.26,13.9,16.2,"09:34:48",1
"18/11/08","09:50",0.0,17.9,77.4,1018.0,215.7,1.0,2.9,213.0,0.28,13.9,16.2,"09:46:56",1
"18/11/08","10:00",0.0,18.7,74.1,1017.8,144.2,0.7,1.7,120.7,0.31,14.0,16.6,"09:56:08",1
"18/11/08","10:10",0.0,18.5,72.8,1017.3,211.6,0.7,1.6,337.4,0.33,13.6,16.6,"10:06:56",1
"18/11/08","10:20",0.0,18.7,71.3,1017.1,186.5,0.7,2.8,210.7,0.33,13.4,16.9,"10:13:12",1
"18/11/08","10:30",0.0,19.2,71.4,1016.8,216.0,0.8,1.9,107.6,0.35,13.9,17.0,"10:29:04",1
"18/11/08","10:40",0.0,19.6,69.6,1016.6,166.6,1.0,2.0,229.4,0.36,13.9,17.2,"10:39:52",1
"18/11/08","10:50",0.0,20.0,68.1,1016.4,252.8,0.7,2.0,214.8,0.37,14.0,17.5,"10:49:36",1
"18/11/08","11:00",0.0,20.3,66.6,1016.6,129.0,0.5,1.4,107.7,0.38,13.9,17.7,"10:56:32",1
"18/11/08","11:10",0.0,20.8,65.4,1016.1,12.8,0.6,1.4,23.0,0.39,14.1,18.1,"11:03:52",1
"18/11/08","11:20",0.0,20.9,65.8,1015.6,242.5,0.6,2.5,224.7,0.40,14.3,18.1,"11:13:04",1
"18/11/08","11:30",0.0,21.1,65.3,1015.4,196.2,1.1,2.7,230.5,0.41,14.4,18.3,"11:24:24",1
"18/11/08","11:40",0.0,21.1,65.1,1015.4,145.6,1.3,3.9,200.6,0.41,14.3,18.8,"11:39:28",1
"18/11/08","11:50",0.0,21.2,62.6,1015.2,205.3,1.3,2.9,117.3,0.41,13.8,18.7,"11:49:20",1
"18/11/08","12:00",0.0,21.6,62.2,1014.7,113.6,0.7,1.8,110.7,0.42,14.1,19.0,"11:50:08",1
"18/11/08","12:10",0.0,21.3,61.7,1014.9,200.4,1.7,3.3,225.7,0.42,13.7,19.5,"12:03:12",1
"18/11/08","12:20",0.0,22.2,62.6,1014.5,210.9,1.2,2.7,178.8,0.42,14.8,19.3,"12:14:24",1
"18/11/08","12:30",0.0,22.0,61.8,1014.2,172.2,0.8,2.6,134.8,0.41,14.4,19.5,"12:29:44",1
"18/11/08","12:40",0.0,22.2,61.8,1013.8,144.4,1.2,4.1,138.7,0.42,14.6,19.8,"12:38:32",1
"18/11/08","12:50",0.0,22.3,60.2,1013.5,127.5,1.5,3.2,115.9,0.41,14.3,20.0,"12:42:56",1
"18/11/08","13:00",0.0,22.2,59.3,1013.5,142.5,1.2,2.7,115.0,0.40,13.9,20.0,"12:56:32",1
"18/11/08","13:10",0.0,22.4,60.0,1013.5,192.0,1.6,3.4,184.6,0.39,14.3,20.4,"13:02:56",1
"18/11/08","13:20",0.0,22.3,59.5,1013.3,204.8,1.5,2.7,232.5,0.36,14.1,20.3,"13:14:56",1
"18/11/08","13:30",0.0,22.4,59.6,1013.3,158.2,1.2,2.8,115.7,0.37,14.2,20.6,"13:22:16",1
"18/11/08","13:40",0.0,22.2,60.9,1013.3,196.0,1.5,3.4,220.7,0.27,14.3,20.4,"13:38:48",1
"18/11/08","13:50",0.0,22.9,58.5,1013.0,220.4,1.2,2.9,216.6,0.35,14.4,20.6,"13:42:08",1
"18/11/08","14:00",0.0,22.7,58.7,1012.8,138.1,1.3,3.2,115.4,0.33,14.2,20.8,"13:58:24",1
"18/11/08","14:10",0.0,23.3,56.4,1013.3,59.3,0.8,4.0,102.3,0.31,14.2,20.9,"14:02:16",1
"18/11/08","14:20",0.0,22.9,58.5,1013.0,162.7,1.0,2.6,190.2,0.27,14.4,20.9,"14:13:20",1
"18/11/08","14:30",0.0,23.0,56.7,1013.3,215.2,1.3,3.7,217.9,0.28,14.0,21.2,"14:22:48",1
"18/11/08","14:40",0.0,23.0,58.9,1013.5,191.5,1.8,4.0,224.6,0.26,14.6,21.0,"14:34:00",1
"18/11/08","14:50",0.0,23.0,57.9,1013.3,179.1,1.1,2.7,200.9,0.21,14.3,21.1,"14:40:08",1
"18/11/08","15:00",0.0,22.5,59.5,1013.0,170.5,0.6,1.7,169.8,0.13,14.3,20.9,"14:53:44",1
"18/11/08","15:10",0.0,22.5,59.0,1013.3,212.2,0.8,1.7,318.7,0.09,14.1,20.7,"15:06:56",1
"18/11/08","15:20",0.0,22.2,59.3,1013.5,206.6,0.7,1.9,216.0,0.08,13.9,20.9,"15:19:44",1
"18/11/08","15:30",0.0,22.1,60.9,1013.5,212.0,1.3,3.6,231.8,0.07,14.2,20.8,"15:25:52",1
"18/11/08","15:40",0.0,22.0,60.3,1013.3,199.6,1.3,3.7,214.6,0.06,14.0,20.6,"15:31:44",1
"18/11/08","15:50",0.0,21.9,61.4,1013.8,218.9,1.0,2.7,203.7,0.05,14.2,20.5,"15:40:40",1
"18/11/08","16:00",0.0,21.7,61.8,1013.5,222.2,1.0,2.6,235.9,0.04,14.1,20.6,"15:51:36",1
"18/11/08","16:10",0.0,21.5,63.4,1013.8,232.9,1.0,2.4,234.7,0.03,14.3,20.3,"16:07:28",1
"18/11/08","16:20",0.0,21.3,63.3,1014.2,268.8,1.0,2.7,237.1,0.02,14.1,20.2,"16:12:32",1
"18/11/08","16:30",0.0,21.0,64.7,1014.2,292.2,0.8,1.3,328.5,0.01,14.1,20.0,"16:20:56",1
"18/11/08","16:40",0.0,20.7,67.5,1014.5,318.0,1.1,1.6,348.3,0.01,14.5,19.9,"16:38:08",1
"18/11/08","16:50",0.0,20.0,70.0,1014.2,338.7,1.2,1.9,346.9,0.00,14.4,19.6,"16:42:08",1
"18/11/08","17:00",0.0,19.5,73.0,1014.2,326.4,1.1,1.4,341.8,0.00,14.6,19.5,"16:50:16",1
"18/11/08","17:10",0.0,18.8,76.2,1014.0,310.1,0.6,1.0,317.1,0.00,14.6,19.6,"17:08:48",1
"18/11/08","17:20",0.0,18.4,78.4,1014.2,286.3,0.7,1.1,265.4,0.00,14.6,19.3,"17:14:00",1
"18/11/08","17:30",0.0,18.2,79.6,1014.5,331.5,0.6,1.0,341.1,0.00,14.7,19.5,"17:26:40",1
"18/11/08","17:40",0.0,17.8,80.3,1014.7,317.6,0.8,1.4,309.4,0.00,14.4,19.3,"17:33:36",1
"18/11/08","17:50",0.0,17.5,81.8,1014.7,301.6,0.8,1.3,300.3,0.00,14.4,19.1,"17:41:44",1
"18/11/08","18:00",0.0,17.6,82.0,1014.9,295.7,1.1,1.9,286.0,0.00,14.5,19.1,"17:53:52",1
"18/11/08","18:10",0.0,17.5,81.5,1014.7,315.4,1.1,1.9,325.0,0.00,14.3,19.0,"18:09:36",1
"18/11/08","18:20",0.0,17.2,83.1,1015.2,311.3,0.8,2.0,308.4,0.00,14.3,18.8,"18:19:36",1
"18/11/08","18:30",0.0,17.0,83.6,1015.2,306.0,1.1,1.9,315.5,0.00,14.2,18.7,"18:29:12",1
"18/11/08","18:40",0.0,16.9,84.1,1014.9,285.4,1.2,2.7,263.2,0.00,14.2,18.6,"18:32:32",1
"18/11/08","18:50",0.0,17.0,84.4,1015.4,295.4,1.0,1.8,320.1,0.00,14.4,18.4,"18:45:36",1
"18/11/08","19:00",0.0,16.7,84.3,1015.4,304.8,0.8,1.7,345.1,0.00,14.1,18.4,"18:53:20",1
"18/11/08","19:10",0.0,16.4,85.3,1015.2,306.3,0.8,1.3,339.1,0.00,14.0,18.4,"19:08:56",1
"18/11/08","19:20",0.0,16.2,86.4,1015.2,298.4,0.7,1.4,322.8,0.00,14.0,18.3,"19:10:40",1
"18/11/08","19:30",0.0,16.0,87.0,1014.9,308.2,0.8,1.4,318.4,0.00,13.9,18.2,"19:26:40",1
"18/11/08","19:40",0.0,16.0,87.5,1015.2,317.1,0.8,1.4,312.3,0.00,14.0,18.1,"19:36:08",1
"18/11/08","19:50",0.0,16.0,87.7,1015.4,294.6,0.7,1.6,282.9,0.00,14.0,18.1,"19:44:48",1
"18/11/08","20:00",0.0,16.0,88.0,1015.4,290.9,1.0,2.2,308.4,0.00,14.1,17.8,"19:57:52",1
"18/11/08","20:10",0.0,16.0,87.7,1015.4,326.5,0.8,2.1,335.0,0.00,14.0,17.8,"20:02:32",1
"18/11/08","20:20",0.0,15.9,88.2,1015.4,296.1,1.0,1.6,333.0,0.00,14.0,17.8,"20:10:08",1
"18/11/08","20:30",0.0,15.8,88.4,1015.2,326.6,0.8,1.6,326.2,0.00,13.9,17.8,"20:26:56",1
"18/11/08","20:40",0.0,15.6,88.6,1014.9,317.4,0.7,1.7,305.7,0.00,13.8,17.7,"20:34:08",1
"18/11/08","20:50",0.0,15.4,89.5,1014.9,306.4,0.7,1.3,326.9,0.00,13.7,17.7,"20:42:32",1
"18/11/08","21:00",0.0,15.2,89.7,1014.9,281.5,0.8,1.1,310.3,0.00,13.6,17.5,"20:52:24",1
"18/11/08","21:10",0.0,15.2,90.0,1015.2,304.6,0.8,1.3,302.6,0.00,13.6,17.6,"21:00:40",1
"18/11/08","21:20",0.0,15.3,90.5,1014.9,295.6,0.8,1.4,308.8,0.00,13.8,17.7,"21:14:16",1
"18/11/08","21:30",0.0,15.2,89.8,1014.7,296.8,0.8,1.4,318.6,0.00,13.6,17.4,"21:24:16",1
"18/11/08","21:40",0.0,15.1,90.6,1014.5,315.6,0.7,1.4,317.8,0.00,13.6,17.5,"21:38:24",1
"18/11/08","21:50",0.0,14.9,91.2,1015.2,288.3,0.8,1.2,298.9,0.00,13.5,17.3,"21:43:12",1
"18/11/08","22:00",0.0,14.9,91.0,1014.9,316.6,0.8,1.4,327.6,0.00,13.5,17.1,"21:52:40",1
"18/11/08","22:10",0.0,14.7,90.8,1014.7,321.4,1.1,1.8,333.5,0.00,13.3,17.2,"22:02:40",1
"18/11/08","22:20",0.0,14.4,91.4,1014.9,292.9,0.7,1.0,273.3,0.00,13.1,17.1,"22:16:16",1
"18/11/08","22:30",0.0,14.3,91.6,1014.7,302.9,0.5,1.4,319.3,0.00,13.0,17.2,"22:29:04",1
"18/11/08","22:40",0.0,14.2,91.8,1014.5,322.6,1.0,1.4,325.7,0.00,12.9,16.9,"22:32:00",1
"18/11/08","22:50",0.0,13.9,92.1,1014.7,301.8,1.0,1.3,323.8,0.00,12.7,17.0,"22:44:48",1
"18/11/08","23:00",0.0,13.7,92.7,1014.7,286.4,0.3,1.2,247.1,0.00,12.6,16.6,"22:50:08",1
"18/11/08","23:10",0.0,13.7,93.2,1014.0,303.0,0.8,1.4,325.4,0.00,12.7,16.8,"23:04:00",1
"18/11/08","23:20",0.0,13.6,93.7,1013.8,285.3,0.8,1.6,327.5,0.00,12.6,16.6,"23:15:20",1
"18/11/08","23:30",0.0,14.0,94.0,1014.5,283.7,1.3,2.0,306.3,0.00,13.1,16.8,"23:27:20",1
"18/11/08","23:40",0.0,14.3,93.3,1014.2,300.2,1.2,1.9,310.5,0.00,13.3,16.8,"23:30:40",1
"18/11/08","23:50",0.0,14.4,92.9,1014.2,331.5,1.5,2.1,334.4,0.00,13.3,16.8,"23:44:24",1
"18/11/08","24:00",0.0,14.2,92.3,1014.0,309.8,1.0,1.6,323.2,0.00,13.0,16.7,"23:52:32",1
